CW2157 Weather Reports


Display with metric or nautical units.
time (UTC)temp
F
wind
direction
speed
MPH
gust
MPH
rain 1hr
in
rain 24hr
in
rain mn
in
humidity
%
barometer
mb
20260506071206 66 200 15.0 21.0 0.00 0.00 0.00 75 1009.6
20260506070706 66 204 16.0 26.0 0.00 0.00 0.00 74 1009.7
20260506070206 66 203 15.0 23.0 0.00 0.00 0.00 74 1009.6
20260506062206 67 180 13.0 23.0 0.00 0.00 0.00 73 1009.7
20260506061706 67 206 15.0 26.0 0.00 0.00 0.00 73 1009.7
20260506061205 67 195 15.0 28.0 0.00 0.00 0.00 73 1009.7
20260506060706 67 201 16.0 23.0 0.00 0.00 0.00 73 1009.7
20260506060206 67 209 14.0 24.0 0.00 0.00 0.00 73 1009.7
20260506051205 68 193 17.0 26.0 0.00 0.00 0.00 71 1010.2
20260506050706 68 202 14.0 30.0 0.00 0.00 0.00 71 1010.1
20260506050206 68 201 14.0 26.0 0.00 0.00 0.00 71 1010.1
20260506044706 69 209 13.0 21.0 0.00 0.00 0.00 70 1010.2
20260506044205 68 192 17.0 23.0 0.00 0.00 0.00 70 1010.2
20260506043705 68 212 14.0 22.0 0.00 0.00 0.00 70 1010.2
20260506043205 68 205 14.0 20.0 0.00 0.00 0.00 71 1010.1
20260506042705 68 211 14.0 25.0 0.00 0.00 0.00 71 1010.2
20260506042205 68 207 14.0 21.0 0.00 0.00 0.00 72 1010.2
20260506041705 68 212 12.0 20.0 0.00 0.00 0.00 71 1010.1
20260506040705 68 189 12.0 20.0 0.00 0.00 0.00 71 1010.2
20260506040205 69 209 12.0 16.0 0.00 0.00 0.00 71 1010.2
20260506035706 69 191 12.0 22.0 0.00 0.00 0.00 69 1010.1
20260506035205 69 205 14.0 24.0 0.00 0.00 0.00 69 1010.0
20260506034705 69 358 14.0 20.0 0.00 0.00 0.00 69 1010.0
20260506034205 69 231 13.0 20.0 0.00 0.00 0.00 68 1010.0
20260506033705 69 13 12.0 20.0 0.00 0.00 0.00 67 1009.9
20260506033205 69 11 13.0 20.0 0.00 0.00 0.00 67 1009.8
20260506032705 69 333 13.0 25.0 0.00 0.00 0.00 66 1009.8
20260506032205 69 341 11.0 22.0 0.00 0.00 0.00 66 1009.9
20260506031706 69 340 12.0 18.0 0.00 0.00 0.00 66 1009.9
20260506031206 69 9 13.0 22.0 0.00 0.00 0.00 65 1009.9
20260506030706 69 59 12.0 20.0 0.00 0.00 0.00 66 1009.9
20260506030205 69 4 12.0 16.0 0.00 0.00 0.00 65 1010.0
20260506025205 69 23 13.0 20.0 0.00 0.00 0.00 65 1010.1
20260506024705 69 5 12.0 17.0 0.00 0.00 0.00 64 1010.0
20260506024205 69 95 13.0 22.0 0.00 0.00 0.00 64 1010.1
20260506023706 69 1 12.0 20.0 0.00 0.00 0.00 64 1010.1
20260506022705 69 70 11.0 21.0 0.00 0.00 0.00 63 1010.0
20260506022205 69 340 10.0 17.0 0.00 0.00 0.00 64 1010.0
20260506021705 70 248 12.0 21.0 0.00 0.00 0.00 63 1010.1
20260506021205 70 344 10.0 18.0 0.00 0.00 0.00 64 1010.0
20260506020705 70 354 12.0 20.0 0.00 0.00 0.00 63 1010.0
20260506020205 70 345 11.0 20.0 0.00 0.00 0.00 63 1009.9
20260506015705 70 21 12.0 20.0 0.00 0.00 0.00 63 1009.9
20260506015205 70 168 12.0 17.0 0.00 0.00 0.00 62 1009.9
20260506014705 70 186 13.0 17.0 0.00 0.00 0.00 63 1009.9
20260506013706 70 0 12.0 16.0 0.00 0.00 0.00 62 1009.8
20260506013206 70 178 12.0 20.0 0.00 0.00 0.00 63 1009.8
20260506012205 70 4 11.0 18.0 0.00 0.00 0.00 62 1009.8
20260506011705 70 7 12.0 18.0 0.00 0.00 0.00 62 1009.6
20260506011205 71 311 12.0 18.0 0.00 0.00 0.00 61 1009.6
20260506010705 71 330 10.0 15.0 0.00 0.00 0.00 61 1009.5
20260506010205 71 336 10.0 16.0 0.00 0.00 0.00 61 1009.4
20260506005705 71 179 10.0 20.0 0.00 0.00 0.00 60 1009.4
20260506004706 71 12 12.0 20.0 0.00 0.00 0.00 59 1009.2
20260506003706 72 354 10.0 20.0 0.00 0.00 0.00 58 1009.0
20260506003206 72 204 10.0 18.0 0.00 0.00 0.00 58 1008.9
20260506002205 72 8 11.0 20.0 0.00 0.00 0.00 57 1008.8
20260506001205 73 337 10.0 18.0 0.00 0.00 0.00 56 1008.9
20260506000706 73 225 10.0 17.0 0.00 0.00 0.00 55 1008.8
20260506000206 73 188 9.0 15.0 0.00 0.00 0.00 56 1008.7
20260505235705 73 336 10.0 16.0 0.00 0.00 0.00 56 1008.8
20260505235206 73 181 10.0 14.0 0.00 0.00 0.00 55 1008.6
20260505234705 74 212 12.0 18.0 0.00 0.00 0.00 54 1008.6
20260505234206 74 287 10.0 15.0 0.00 0.00 0.00 54 1008.6
20260505233705 74 168 7.0 20.0 0.00 0.00 0.00 55 1008.5
20260505233205 74 142 6.0 16.0 0.00 0.00 0.00 53 1008.4
20260505232706 74 181 9.0 16.0 0.00 0.00 0.00 54 1008.5
20260505232205 74 159 9.0 15.0 0.00 0.00 0.00 54 1008.5
20260505231705 74 155 10.0 15.0 0.00 0.00 0.00 54 1008.5
20260505231205 74 158 7.0 14.0 0.00 0.00 0.00 53 1008.5
20260505230705 75 173 7.0 12.0 0.00 0.00 0.00 53 1008.5
20260505230205 75 222 7.0 14.0 0.00 0.00 0.00 53 1008.5
20260505224705 75 203 8.0 15.0 0.00 0.00 0.00 53 1008.4
20260505224205 75 178 9.0 14.0 0.00 0.00 0.00 51 1008.5
20260505223705 75 24 9.0 17.0 0.00 0.00 0.00 52 1008.5
20260505223205 75 165 9.0 17.0 0.00 0.00 0.00 51 1008.4
20260505222705 75 186 10.0 17.0 0.00 0.00 0.00 52 1008.4
20260505222205 76 3 10.0 21.0 0.00 0.00 0.00 51 1008.5
20260505221705 76 38 8.0 14.0 0.00 0.00 0.00 52 1008.6
20260505221205 76 358 12.0 20.0 0.00 0.00 0.00 50 1008.5
20260505220705 76 248 10.0 20.0 0.00 0.00 0.00 50 1008.5
20260505220205 76 170 10.0 15.0 0.00 0.00 0.00 49 1008.4
20260505215706 77 300 13.0 17.0 0.00 0.00 0.00 49 1008.4
20260505215205 77 247 10.0 14.0 0.00 0.00 0.00 49 1008.5
20260505214704 77 103 9.0 16.0 0.00 0.00 0.00 49 1008.5
20260505214205 77 198 10.0 18.0 0.00 0.00 0.00 49 1008.5
20260505213705 78 253 12.0 17.0 0.00 0.00 0.00 49 1008.4
20260505212704 78 305 12.0 18.0 0.00 0.00 0.00 47 1008.3
20260505212205 79 355 12.0 17.0 0.00 0.00 0.00 48 1008.3
20260505211705 79 11 11.0 22.0 0.00 0.00 0.00 47 1008.3
20260505211205 80 4 12.0 18.0 0.00 0.00 0.00 46 1008.2
20260505210705 80 196 13.0 21.0 0.00 0.00 0.00 45 1008.3
20260505210205 80 177 14.0 20.0 0.00 0.00 0.00 44 1008.2
20260505205705 80 253 14.0 24.0 0.00 0.00 0.00 46 1008.2
20260505205205 80 189 18.0 30.0 0.00 0.00 0.00 44 1008.2
20260505204705 80 185 16.0 22.0 0.00 0.00 0.00 46 1008.2
20260505204205 80 210 16.0 23.0 0.00 0.00 0.00 46 1008.3
20260505203705 80 274 17.0 23.0 0.00 0.00 0.00 45 1008.3
20260505203205 80 200 15.0 26.0 0.00 0.00 0.00 44 1008.2
20260505202205 80 0 14.0 20.0 0.00 0.00 0.00 49 1008.5
20260505201705 80 331 14.0 21.0 0.00 0.00 0.00 51 1008.5
20260505201205 80 350 14.0 25.0 0.00 0.00 0.00 47 1008.6
20260505200705 80 238 14.0 21.0 0.00 0.00 0.00 45 1008.6
20260505200205 80 353 16.0 23.0 0.00 0.00 0.00 50 1008.7
20260505195205 81 293 14.0 20.0 0.00 0.00 0.00 46 1008.7
20260505194705 81 9 16.0 28.0 0.00 0.00 0.00 46 1008.8
20260505194205 81 351 14.0 20.0 0.00 0.00 0.00 48 1008.8
20260505193705 80 275 14.0 20.0 0.00 0.00 0.00 49 1009.0
20260505193205 80 224 13.0 24.0 0.00 0.00 0.00 48 1009.1
20260505192704 80 215 12.0 22.0 0.00 0.00 0.00 47 1009.2
20260505192204 80 222 14.0 22.0 0.00 0.00 0.00 50 1009.3
20260505191705 80 4 13.0 20.0 0.00 0.00 0.00 47 1009.4
20260505191206 80 205 13.0 24.0 0.00 0.00 0.00 50 1009.4
20260505190205 80 156 12.0 21.0 0.00 0.00 0.00 48 1009.6
20260505185705 80 355 13.0 23.0 0.00 0.00 0.00 47 1009.6
20260505185205 80 32 14.0 20.0 0.00 0.00 0.00 49 1009.8
20260505184205 80 166 14.0 20.0 0.00 0.00 0.00 50 1009.9
20260505183705 80 204 11.0 20.0 0.00 0.00 0.00 50 1009.9
20260505183205 80 210 12.0 20.0 0.00 0.00 0.00 47 1010.0
20260505182705 80 310 14.0 21.0 0.00 0.00 0.00 48 1010.0
20260505182205 80 335 14.0 21.0 0.00 0.00 0.00 48 1010.0
20260505181705 80 243 15.0 22.0 0.00 0.00 0.00 49 1010.0
20260505180205 79 18 14.0 20.0 0.00 0.00 0.00 47 1010.4
20260505175704 79 187 14.0 21.0 0.00 0.00 0.00 48 1010.4
20260505175205 79 207 14.0 20.0 0.00 0.00 0.00 47 1010.4
20260505174205 79 195 13.0 20.0 0.00 0.00 0.00 50 1010.4
20260505173705 78 243 16.0 24.0 0.00 0.00 0.00 49 1010.4
20260505173205 78 215 14.0 20.0 0.00 0.00 0.00 50 1010.4
20260505172705 78 304 15.0 23.0 0.00 0.00 0.00 51 1010.5
20260505172205 78 17 13.0 20.0 0.00 0.00 0.00 50 1010.5
20260505170705 77 197 14.0 22.0 0.00 0.00 0.00 53 1010.8
20260505170205 77 36 13.0 20.0 0.00 0.00 0.00 51 1010.9
20260505165705 77 172 12.0 17.0 0.00 0.00 0.00 51 1011.0
20260505164205 77 314 13.0 20.0 0.00 0.00 0.00 50 1011.1
20260505163205 76 191 12.0 18.0 0.00 0.00 0.00 55 1011.3
20260505162205 75 224 10.0 16.0 0.00 0.00 0.00 54 1011.3
20260505161705 75 187 13.0 20.0 0.00 0.00 0.00 55 1011.4
20260505161205 75 195 12.0 18.0 0.00 0.00 0.00 53 1011.5
20260505160705 75 186 10.0 17.0 0.00 0.00 0.00 54 1011.5
20260505153205 74 192 12.0 18.0 0.00 0.00 0.00 57 1011.5
20260505152705 74 184 12.0 18.0 0.00 0.00 0.00 54 1011.5
20260505152204 73 222 13.0 18.0 0.00 0.00 0.00 55 1011.5
20260505150705 73 207 10.0 16.0 0.00 0.00 0.00 57 1011.6
20260505150205 73 212 12.0 20.0 0.00 0.00 0.00 55 1011.7
20260505140205 71 208 11.0 17.0 0.00 0.00 0.00 58 1011.5
20260505124704 70 232 11.0 18.0 0.00 0.00 0.00 59 1011.4
20260505124204 69 217 11.0 15.0 0.00 0.00 0.00 62 1011.3
20260505123205 68 230 12.0 17.0 0.00 0.00 0.00 62 1011.3
20260505122705 68 217 16.0 18.0 0.00 0.00 0.00 65 1011.3
20260505121705 67 221 14.0 18.0 0.00 0.00 0.00 64 1011.2
20260505121205 67 226 12.0 18.0 0.00 0.00 0.00 64 1011.2
20260505120705 66 228 14.0 18.0 0.00 0.00 0.00 65 1011.2
20260505120205 66 217 12.0 17.0 0.00 0.00 0.00 66 1011.1
20260505115705 66 213 12.0 18.0 0.00 0.00 0.00 66 1011.1
20260505115205 65 214 13.0 16.0 0.00 0.00 0.00 66 1011.1
20260505114705 65 208 12.0 17.0 0.00 0.00 0.00 67 1011.0
20260505114204 65 207 13.0 20.0 0.00 0.00 0.00 67 1011.0
20260505113704 64 201 13.0 20.0 0.00 0.00 0.00 67 1011.0
20260505112205 63 236 13.0 17.0 0.00 0.00 0.00 69 1010.8
20260505111705 63 230 14.0 20.0 0.00 0.00 0.00 70 1010.9
20260505102205 61 209 10.0 15.0 0.00 0.00 0.00 72 1010.6
20260505101705 61 204 7.0 15.0 0.00 0.00 0.00 72 1010.5
20260505101205 61 196 10.0 15.0 0.00 0.00 0.00 71 1010.5
20260505100705 61 210 10.0 16.0 0.00 0.00 0.00 71 1010.5
20260505100205 61 207 10.0 15.0 0.00 0.00 0.00 71 1010.4
20260505095705 61 201 10.0 15.0 0.00 0.00 0.00 71 1010.4
20260505095204 61 206 10.0 15.0 0.00 0.00 0.00 72 1010.4
20260505094704 61 213 10.0 13.0 0.00 0.00 0.00 71 1010.3
20260505094205 61 196 11.0 16.0 0.00 0.00 0.00 72 1010.4
20260505093705 61 184 6.0 12.0 0.00 0.00 0.00 73 1010.3
20260505093205 61 193 9.0 12.0 0.00 0.00 0.00 72 1010.4
20260505092705 61 205 8.0 14.0 0.00 0.00 0.00 73 1010.3
20260505092205 61 171 6.0 12.0 0.00 0.00 0.00 74 1010.3
20260505091705 61 187 8.0 14.0 0.00 0.00 0.00 74 1010.3
20260505091204 61 195 9.0 12.0 0.00 0.00 0.00 73 1010.2
20260505090705 62 204 7.0 13.0 0.00 0.00 0.00 73 1010.2
20260505090204 62 182 8.0 12.0 0.00 0.00 0.00 73 1010.2
20260505085705 62 196 8.0 12.0 0.00 0.00 0.00 73 1010.2
20260505085205 62 190 9.0 14.0 0.00 0.00 0.00 73 1010.2
20260505084705 62 208 9.0 14.0 0.00 0.00 0.00 73 1010.2
20260505084204 62 196 8.0 15.0 0.00 0.00 0.00 73 1010.2
20260505083205 61 210 9.0 14.0 0.00 0.00 0.00 74 1010.2
20260505082705 61 197 8.0 13.0 0.00 0.00 0.00 75 1010.2
20260505082205 61 191 10.0 16.0 0.00 0.00 0.00 75 1010.1
20260505081705 61 195 9.0 16.0 0.00 0.00 0.00 75 1010.2
20260505081205 61 190 9.0 14.0 0.00 0.00 0.00 74 1010.3
20260505080705 61 210 9.0 14.0 0.00 0.00 0.00 73 1010.2
20260505080205 61 198 10.0 15.0 0.00 0.00 0.00 73 1010.1
20260505075705 61 207 10.0 14.0 0.00 0.00 0.00 72 1010.1
20260505075205 61 204 10.0 17.0 0.00 0.00 0.00 72 1010.2
20260505073705 62 210 13.0 18.0 0.00 0.00 0.00 71 1010.1
20260505073205 62 205 12.0 18.0 0.00 0.00 0.00 70 1010.1
20260505072705 63 206 12.0 18.0 0.00 0.00 0.00 70 1010.1
20260505072205 63 209 12.0 17.0 0.00 0.00 0.00 70 1010.0